This is the latest recevied weather packets stored in our database for station/object KC5DAQ-29. If no packets are shown the sender has not sent any weather packets the latest 1 day(s).
| Time | Temp. | Humidity | Pressure | Rain* | Wind** | Luminosity | Snow |
|---|---|---|---|---|---|---|---|
| 1778021765 | 27.78° C | 100% | 1004.1 hPa | 0 mm | 2.68 m/s, 180° | 137 W/m² | - |
| 1778021702 | 27.78° C | 100% | 1004.1 hPa | 0 mm | 2.24 m/s, 134° | 137 W/m² | - |
| 1778021642 | 27.78° C | 100% | 1004.1 hPa | 0 mm | 1.34 m/s, 123° | 137 W/m² | - |
| 1778021582 | 28.33° C | 100% | 1004.1 hPa | 0 mm | 1.79 m/s, 142° | 137 W/m² | - |
| 1778021523 | 28.33° C | 100% | 1004.1 hPa | 0 mm | 1.79 m/s, 145° | 137 W/m² | - |
| 1778021464 | 28.33° C | 100% | 1004.1 hPa | 0 mm | 2.24 m/s, 121° | 179 W/m² | - |
| 1778021404 | 28.33° C | 100% | 1004.2 hPa | 0 mm | 2.24 m/s, 158° | 248 W/m² | - |
| 1778021342 | 28.33° C | 100% | 1004.2 hPa | 0 mm | 2.24 m/s, 165° | 248 W/m² | - |
| 1778021282 | 28.33° C | 100% | 1004.3 hPa | 0 mm | 1.79 m/s, 158° | 243 W/m² | - |
| 1778021223 | 28.33° C | 100% | 1004.2 hPa | 0 mm | 1.79 m/s, 144° | 243 W/m² | - |
| 1778021162 | 28.33° C | 100% | 1004.2 hPa | 0 mm | 1.34 m/s, 100° | 241 W/m² | - |
| 1778021104 | 28.33° C | 100% | 1004.2 hPa | 0 mm | 1.34 m/s, 162° | 241 W/m² | - |
| 1778021043 | 28.33° C | 100% | 1004.2 hPa | 0 mm | 1.79 m/s, 152° | 274 W/m² | - |
| 1778020983 | 28.33° C | 100% | 1004.3 hPa | 0 mm | 2.24 m/s, 178° | 274 W/m² | - |
| 1778020922 | 28.33° C | 100% | 1004.3 hPa | 0 mm | 1.34 m/s, 165° | 274 W/m² | - |
| 1778020863 | 28.33° C | 100% | 1004.3 hPa | 0 mm | 1.34 m/s, 200° | 274 W/m² | - |
| 1778020804 | 28.33° C | 100% | 1004.3 hPa | 0 mm | 1.34 m/s, 125° | 292 W/m² | - |
| 1778020743 | 27.78° C | 100% | 1004.3 hPa | 0 mm | 1.79 m/s, 135° | 292 W/m² | - |
| 1778020682 | 27.78° C | 100% | 1004.3 hPa | 0 mm | 1.79 m/s, 135° | 292 W/m² | - |
| 1778020622 | 27.78° C | 100% | 1004.4 hPa | 0 mm | 1.79 m/s, 135° | 292 W/m² | - |
| 1778020562 | 27.78° C | 100% | 1004.3 hPa | 0 mm | 1.79 m/s, 135° | 292 W/m² | - |
| 1778020502 | 27.78° C | 100% | 1004.3 hPa | 0 mm | 1.79 m/s, 148° | 292 W/m² | - |
| 1778020443 | 27.78° C | 100% | 1004.3 hPa | 0 mm | 2.24 m/s, 176° | 343 W/m² | - |
| 1778020382 | 27.78° C | 100% | 1004.4 hPa | 0 mm | 2.24 m/s, 133° | 348 W/m² | - |
| 1778020322 | 27.78° C | 100% | 1004.3 hPa | 0 mm | 1.79 m/s, 66° | 288 W/m² | - |
* Rain latest hour (hover to see other rain measurements)
** Current wind speed in m/s (hover to see current wind gust speed)